Location: Bonny Doon Airfield
(37.0704°N, 122.1252°W)
Time: 08:17:02
(UTC-07:00)

Tiangong 2 - Pass Details

Date: 10 October 2017
Orbit: 388 x 391 km, 42.8° (Epoch: 23 October)

Event Time Altitude Azimuth Distance (km) Brightness Sun altitude
Exits shadow 05:38:18 75° 358° (N) 406 1.0 -19.5°
Drops below altitude 10° 05:41:25 10° 64° (ENE) 1,420 5.0 -18.9°
Sets 05:43:30 0° 66° (ENE) 2,278 6.3 -18.4°
